AirNav   Everest Fuels
 
 994 users online  

29MN Wetenkamp Airport
Tintah, Minnesota, USA

GOING TO TINTAH?


FAA INFORMATION EFFECTIVE 21 MAY 2020

Location

FAA Identifier: 29MN
Lat/Long: 46-01-41.8550N 096-21-46.2340W
46-01.697583N 096-21.770567W
46.0282931,-96.3628428
(estimated)
Elevation: 990 ft. / 302 m (estimated)
Variation: 06E (1985)
From city: 2 miles NW of TINTAH, MN
Time zone: UTC -5 (UTC -6 during Standard Time)
Zip code: 56565

Airport Operations

Airport use: Private use. Permission required prior to landing
Activation date: 11/1978
Control tower: no
ARTCC: MINNEAPOLIS CENTER
FSS: PRINCETON FLIGHT SERVICE STATION
Attendance: UNATNDD
Wind indicator: yes
Segmented circle: no

Airport Communications

WX AWOS-3 at Y63 (16 nm E): 118.075 (218-685-6456)
WX AWOS-3 at BWP (16 nm NW): 127.875 (701-642-9800)
WX AWOS-3 at ETH (17 nm SW): 118.775 (320-563-4975)
WX AWOS-3 at FFM (18 nm NE): 110.4 (218-736-7216)

Nearby radio navigation aids

VOR radial/distance  VOR name  Freq  Var
FFMr204/17.9FERGUS FALLS VOR/DME110.4005E
MOXr324/32.3MORRIS VOR/DME109.6005E

Airport Services

Fuel available: 100LL

Runway Information

Runway 17/35

Dimensions: 3000 x 60 ft. / 914 x 18 m
Surface: turf
RUNWAY 17  RUNWAY 35
Traffic pattern: leftleft
Obstructions: none30 ft. trees, 850 ft. from runway

Airport Ownership and Management from official FAA records

Ownership: Privately-owned
Owner: DONALD T. WETENKAMP
5160- 290TH AVE
TINTAH, MN 56583
Phone 218-369-2422
Manager: DONALD T. WETENKAMP
5160- 290TH AVE
TINTAH, MN 56583
Phone 218-369-2422
OTHER:NORM AHRENS 5158 290TH AVE TINTAH, MN 56583 218-369-2114

Airport Operational Statistics

Aircraft based on the field: 1
Single engine airplanes: 1
    

Additional Remarks

FOR CD CTC MINNEAPOLIS ARTCC AT 651-463-5588.

Instrument Procedures

There are no published instrument procedures at 29MN.

Some nearby airports with instrument procedures:

Y63 - Elbow Lake Municipal - Pride of the Prairie Airport (16 nm E)
KBWP - Harry Stern Airport (16 nm NW)
KETH - Wheaton Municipal Airport (17 nm SW)
KFFM - Fergus Falls Municipal Airport-Einar Mickelson Field (18 nm NE)
KMOX - Morris Municipal Airport - Charlie Schmidt Field (32 nm SE)
 
Loc | Ops | Rwys | IFR | FBO | Links
Com | Nav | Svcs | Stats | Notes
Area around 29MN (Wetenkamp Airport)
 
Road maps at: MapQuest Bing Google
 
Aerial photo
No photo
 
Sectional chart

 
Airport distance calculator
Flying to Wetenkamp Airport? Find the distance to fly.

From to 29MN

Sunrise and sunset
Times for 28-May-2020
 Local
(UTC-5)
 Zulu
(UTC)
Morning civil twilight05:0410:04
Sunrise05:4110:41
Sunset21:0502:05
Evening civil twilight21:4202:42

Current date and time
Zulu (UTC)  29-May-2020 01:01:30
Local (UTC-5)  28-May-2020 20:01:30
 
METAR
KY63 
16nm E 
290055Z AUTO 33016KT 10SM SCT065 17/07 A3004 RMK AO2 T01710073
KBWP 
16nm NW 
290035Z AUTO 34018G23KT 10SM 17/04 A3005 RMK AO1
KFFM 
17nm NE 
290056Z AUTO 33016G22KT 10SM OVC060 17/07 A3003 RMK AO2
KETH 
21nm S 
290053Z AUTO 31014G21KT 10SM SCT060 BKN070 19/06 A3006 RMK AO2
TAF
KAXN 
41nm E 
281720Z 2818/2918 31016G23KT P6SM SKC FM282300 31016G24KT P6SM SCT100 FM290800 33010G18KT P6SM FEW200
NOTAMs
Click for the latest NOTAMs
NOTAMs are issued by the DoD/FAA and will open in a separate window not controlled by AirNav.

 

 
 

Would you like to see your business listed on this page?

 If your business provides an interesting product or service to pilots, flight crews, aircraft, or users of the Wetenkamp Airport, you should consider listing it here.  To start the listing process, click on the button below
 
Add a business
 

Other Pages about Wetenkamp Airport

Update a link
 
Copyright © AirNav, LLC. All rights reserved. Privacy Policy  Contact